| time (UTC) | temp F | wind direction | speed knots | gust knots | rain 1hr in | rain 24hr in | rain mn in | humidity % | barometer mb |
| 20260509002236 | 77 | 156 | 3.5 | 5.2 | 0.00 | 0.00 | 0.00 | ||
| 20260509001737 | 78 | 136 | 5.2 | 5.2 | 0.00 | 0.00 | 0.00 | ||
| 20260509001237 | 77 | 158 | 5.2 | 5.2 | 0.00 | 0.00 | 0.00 | ||
| 20260509000734 | 77 | 115 | 7.0 | 5.2 | 0.00 | 0.00 | 0.00 | ||
| 20260509000235 | 78 | 158 | 4.3 | 5.2 | 0.00 | 0.00 | 0.00 | ||
| 20260508235735 | 78 | 117 | 4.3 | 4.3 | 0.00 | 0.00 | 0.00 | ||
| 20260508234234 | 79 | 152 | 4.3 | 5.2 | 0.00 | 0.00 | 0.00 | ||
| 20260508233731 | 79 | 129 | 6.1 | 4.3 | 0.00 | 0.00 | 0.00 | ||
| 20260508232733 | 80 | 34 | 5.2 | 2.6 | 0.00 | 0.00 | 0.00 | ||
| 20260508232229 | 81 | 179 | 4.3 | 4.3 | 0.00 | 0.00 | 0.00 | ||
| 20260508231730 | 79 | 145 | 1.7 | 4.3 | 0.00 | 0.00 | 0.00 | ||
| 20260508231230 | 79 | 82 | 2.6 | 0.0 | 0.00 | 0.00 | 0.00 | ||
| 20260508230728 | 80 | 98 | 3.5 | 3.5 | 0.00 | 0.00 | 0.00 | ||
| 20260508230228 | 82 | 190 | 2.6 | 0.0 | 0.00 | 0.00 | 0.00 | ||
| 20260508225729 | 83 | 277 | 1.7 | 0.0 | 0.00 | 0.00 | 0.00 | ||
| 20260508225226 | 82 | 217 | 0.0 | 0.0 | 0.00 | 0.00 | 0.00 | ||
| 20260508224727 | 79 | 229 | 3.5 | 1.7 | 0.00 | 0.00 | 0.00 | ||
| 20260508224227 | 78 | 120 | 6.1 | 5.2 | 0.00 | 0.00 | 0.00 | ||
| 20260508223724 | 79 | 114 | 3.5 | 3.5 | 0.00 | 0.00 | 0.00 | ||
| 20260508223225 | 80 | 108 | 5.2 | 6.1 | 0.00 | 0.00 | 0.00 | ||
| 20260508222725 | 80 | 162 | 4.3 | 2.6 | 0.00 | 0.00 | 0.00 | ||
| 20260508222223 | 80 | 97 | 6.1 | 3.5 | 0.00 | 0.00 | 0.00 | ||
| 20260508221723 | 81 | 129 | 7.0 | 9.6 | 0.00 | 0.00 | 0.00 | ||
| 20260508221224 | 81 | 132 | 3.5 | 6.1 | 0.00 | 0.00 | 0.00 | ||
| 20260508220721 | 81 | 186 | 7.0 | 7.0 | 0.00 | 0.00 | 0.00 | ||
| 20260508220221 | 80 | 184 | 5.2 | 6.1 | 0.00 | 0.00 | 0.00 | ||
| 20260508215722 | 78 | 132 | 7.0 | 6.1 | 0.00 | 0.00 | 0.00 | ||
| 20260508215219 | 81 | 152 | 7.8 | 6.1 | 0.00 | 0.00 | 0.00 | ||
| 20260508214901 | 81 | 138 | 7.0 | 5.2 | 0.00 | 0.00 | 0.00 | ||
| 20260508214720 | 81 | 138 | 7.0 | 5.2 | 0.00 | 0.00 | 0.00 | ||
| 20260508214447 | 81 | 207 | 1.7 | 7.0 | 0.00 | 0.00 | 0.00 | ||
| 20260508214220 | 81 | 207 | 1.7 | 7.0 | 0.00 | 0.00 | 0.00 | ||
| 20260508213718 | 80 | 221 | 6.1 | 3.5 | 0.00 | 0.00 | 0.00 | ||
| 20260508213456 | 79 | 156 | 5.2 | 7.8 | 0.00 | 0.00 | 0.00 | ||
| 20260508213218 | 79 | 156 | 5.2 | 7.8 | 0.00 | 0.00 | 0.00 | ||
| 20260508212718 | 79 | 165 | 5.2 | 7.0 | 0.00 | 0.00 | 0.00 | ||
| 20260508212216 | 80 | 135 | 8.7 | 10.4 | 0.00 | 0.00 | 0.00 | ||
| 20260508211716 | 80 | 128 | 4.3 | 7.0 | 0.00 | 0.00 | 0.00 | ||
| 20260508211217 | 80 | 214 | 7.0 | 7.0 | 0.00 | 0.00 | 0.00 | ||
| 20260508210714 | 79 | 173 | 7.0 | 4.3 | 0.00 | 0.00 | 0.00 | ||
| 20260508210215 | 79 | 179 | 5.2 | 4.3 | 0.00 | 0.00 | 0.00 | ||
| 20260508205715 | 80 | 214 | 2.6 | 5.2 | 0.00 | 0.00 | 0.00 | ||
| 20260508205212 | 80 | 195 | 6.1 | 8.7 | 0.00 | 0.00 | 0.00 | ||
| 20260508204713 | 79 | 184 | 7.8 | 7.8 | 0.00 | 0.00 | 0.00 | ||
| 20260508204213 | 79 | 129 | 6.1 | 5.2 | 0.00 | 0.00 | 0.00 | ||
| 20260508203711 | 79 | 183 | 7.8 | 7.0 | 0.00 | 0.00 | 0.00 | ||
| 20260508203211 | 79 | 132 | 7.0 | 9.6 | 0.00 | 0.00 | 0.00 | ||
| 20260508202712 | 79 | 177 | 7.8 | 8.7 | 0.00 | 0.00 | 0.00 | ||
| 20260508202209 | 79 | 162 | 7.0 | 7.8 | 0.00 | 0.00 | 0.00 | ||
| 20260508201709 | 79 | 184 | 6.1 | 4.3 | 0.00 | 0.00 | 0.00 | ||
| 20260508201210 | 78 | 193 | 6.1 | 6.1 | 0.00 | 0.00 | 0.00 | ||
| 20260508200707 | 78 | 255 | 5.2 | 6.1 | 0.00 | 0.00 | 0.00 | ||
| 20260508200208 | 78 | 191 | 5.2 | 6.1 | 0.00 | 0.00 | 0.00 | ||
| 20260508195708 | 78 | 170 | 7.0 | 3.5 | 0.00 | 0.00 | 0.00 | ||
| 20260508195205 | 77 | 235 | 7.0 | 6.1 | 0.00 | 0.00 | 0.00 | ||
| 20260508194706 | 78 | 165 | 7.0 | 5.2 | 0.00 | 0.00 | 0.00 | ||
| 20260508194536 | 78 | 186 | 2.6 | 0.9 | 0.00 | 0.00 | 0.00 | ||
| 20260508194532 | 77 | 107 | 2.6 | 3.5 | 0.00 | 0.00 | 0.00 | ||
| 20260508194206 | 78 | 193 | 5.2 | 1.7 | 0.00 | 0.00 | 0.00 | ||
| 20260508193704 | 78 | 186 | 2.6 | 0.9 | 0.00 | 0.00 | 0.00 | ||
| 20260508193204 | 77 | 107 | 2.6 | 3.5 | 0.00 | 0.00 | 0.00 | ||
| 20260508192705 | 77 | 188 | 4.3 | 2.6 | 0.00 | 0.00 | 0.00 | ||
| 20260508192202 | 76 | 83 | 0.0 | 1.7 | 0.00 | 0.00 | 0.00 | ||
| 20260508191703 | 77 | 177 | 2.6 | 0.9 | 0.00 | 0.00 | 0.00 | ||
| 20260508191203 | 76 | 280 | 3.5 | 0.9 | 0.00 | 0.00 | 0.00 | ||
| 20260508190701 | 76 | 243 | 2.6 | 2.6 | 0.00 | 0.00 | 0.00 | ||
| 20260508190201 | 76 | 248 | 2.6 | 2.6 | 0.00 | 0.00 | 0.00 | ||
| 20260508185701 | 76 | 318 | 0.0 | 0.0 | 0.00 | 0.00 | 0.00 | ||
| 20260508185159 | 76 | 264 | 3.5 | 2.6 | 0.00 | 0.00 | 0.00 | ||
| 20260508184659 | 75 | 156 | 4.3 | 3.5 | 0.00 | 0.00 | 0.00 | ||
| 20260508184200 | 74 | 218 | 4.3 | 1.7 | 0.00 | 0.00 | 0.00 | ||
| 20260508183657 | 75 | 276 | 3.5 | 6.1 | 0.00 | 0.00 | 0.00 | ||
| 20260508183158 | 75 | 183 | 6.1 | 5.2 | 0.00 | 0.00 | 0.00 | ||
| 20260508182658 | 74 | 163 | 2.6 | 2.6 | 0.00 | 0.00 | 0.00 | ||
| 20260508182156 | 74 | 195 | 2.6 | 3.5 | 0.00 | 0.00 | 0.00 | ||
| 20260508181656 | 73 | 215 | 4.3 | 4.3 | 0.00 | 0.00 | 0.00 | ||
| 20260508181157 | 73 | 243 | 4.3 | 3.5 | 0.00 | 0.00 | 0.00 | ||
| 20260508180654 | 74 | 188 | 1.7 | 3.5 | 0.00 | 0.00 | 0.00 | ||
| 20260508180155 | 74 | 191 | 0.9 | 0.0 | 0.00 | 0.00 | 0.00 | ||
| 20260508175655 | 74 | 191 | 0.0 | 0.0 | 0.00 | 0.00 | 0.00 | ||
| 20260508175153 | 73 | 187 | 1.7 | 0.9 | 0.00 | 0.00 | 0.00 | ||
| 20260508174653 | 72 | 4 | 0.0 | 0.0 | 0.00 | 0.00 | 0.00 | ||
| 20260508174154 | 72 | 97 | 0.0 | 3.5 | 0.00 | 0.00 | 0.00 | ||
| 20260508173651 | 73 | 339 | 0.0 | 0.9 | 0.00 | 0.00 | 0.00 | ||
| 20260508173152 | 73 | 215 | 0.0 | 0.0 | 0.00 | 0.00 | 0.00 | ||
| 20260508172652 | 72 | 215 | 0.0 | 0.0 | 0.00 | 0.00 | 0.00 | ||
| 20260508172150 | 71 | 181 | 0.9 | 0.9 | 0.00 | 0.00 | 0.00 | ||
| 20260508171650 | 71 | 110 | 1.7 | 2.6 | 0.00 | 0.00 | 0.00 | ||
| 20260508171150 | 71 | 70 | 0.0 | 0.0 | 0.00 | 0.00 | 0.00 | ||
| 20260508170648 | 70 | 73 | 1.7 | 3.5 | 0.00 | 0.00 | 0.00 | ||
| 20260508170148 | 70 | 113 | 0.0 | 2.6 | 0.00 | 0.00 | 0.00 | ||
| 20260508165649 | 70 | 97 | 0.0 | 0.0 | 0.00 | 0.00 | 0.00 | ||
| 20260508165146 | 72 | 97 | 0.0 | 0.0 | 0.00 | 0.00 | 0.00 | ||
| 20260508164647 | 73 | 150 | 4.3 | 6.1 | 0.00 | 0.00 | 0.00 | ||
| 20260508164147 | 72 | 115 | 2.6 | 0.0 | 0.00 | 0.00 | 0.00 | ||
| 20260508163645 | 74 | 138 | 5.2 | 6.1 | 0.00 | 0.00 | 0.00 | ||
| 20260508163145 | 72 | 160 | 4.3 | 1.7 | 0.00 | 0.00 | 0.00 | ||
| 20260508162645 | 69 | 35 | 0.0 | 0.0 | 0.00 | 0.00 | 0.00 | ||
| 20260508162143 | 69 | 55 | 3.5 | 2.6 | 0.00 | 0.00 | 0.00 | ||
| 20260508161643 | 69 | 131 | 5.2 | 1.7 | 0.00 | 0.00 | 0.00 | ||
| 20260508161144 | 70 | 131 | 2.6 | 2.6 | 0.00 | 0.00 | 0.00 | ||
| 20260508160641 | 72 | 285 | 0.0 | 0.0 | 0.00 | 0.00 | 0.00 | ||
| 20260508160142 | 71 | 285 | 1.7 | 0.0 | 0.00 | 0.00 | 0.00 | ||
| 20260508155642 | 70 | 139 | 2.6 | 1.7 | 0.00 | 0.00 | 0.00 | ||
| 20260508155139 | 69 | 203 | 2.6 | 0.9 | 0.00 | 0.00 | 0.00 | ||
| 20260508154640 | 67 | 79 | 1.7 | 0.9 | 0.00 | 0.00 | 0.00 | ||
| 20260508154140 | 68 | 359 | 0.0 | 0.0 | 0.00 | 0.00 | 0.00 | ||
| 20260508153638 | 66 | 59 | 0.9 | 0.0 | 0.00 | 0.00 | 0.00 | ||
| 20260508153138 | 65 | 60 | 4.3 | 0.9 | 0.00 | 0.00 | 0.00 | ||
| 20260508152639 | 64 | 69 | 1.7 | 0.0 | 0.00 | 0.00 | 0.00 | ||
| 20260508152136 | 65 | 70 | 2.6 | 3.5 | 0.00 | 0.00 | 0.00 | ||
| 20260508151636 | 65 | 169 | 3.5 | 0.9 | 0.00 | 0.00 | 0.00 | ||
| 20260508151137 | 64 | 60 | 3.5 | 0.9 | 0.00 | 0.00 | 0.00 | ||
| 20260508150634 | 65 | 124 | 0.0 | 0.0 | 0.00 | 0.00 | 0.00 | ||
| 20260508150135 | 64 | 101 | 0.0 | 4.3 | 0.00 | 0.00 | 0.00 | ||
| 20260508145635 | 64 | 121 | 2.6 | 3.5 | 0.00 | 0.00 | 0.00 | ||
| 20260508145133 | 62 | 38 | 1.7 | 1.7 | 0.00 | 0.00 | 0.00 | ||
| 20260508144633 | 62 | 42 | 2.6 | 2.6 | 0.00 | 0.00 | 0.00 | ||
| 20260508144133 | 62 | 125 | 0.9 | 0.0 | 0.00 | 0.00 | 0.00 | ||
| 20260508143131 | 61 | 48 | 1.7 | 4.3 | 0.00 | 0.00 | 0.00 | ||
| 20260508142632 | 61 | 97 | 6.1 | 4.3 | 0.00 | 0.00 | 0.00 | ||
| 20260508142129 | 61 | 148 | 2.6 | 3.5 | 0.00 | 0.00 | 0.00 | ||
| 20260508141630 | 60 | 146 | 4.3 | 3.5 | 0.00 | 0.00 | 0.00 | ||
| 20260508141130 | 60 | 111 | 4.3 | 5.2 | 0.00 | 0.00 | 0.00 | ||
| 20260508140628 | 60 | 91 | 3.5 | 3.5 | 0.00 | 0.00 | 0.00 | ||
| 20260508140128 | 60 | 83 | 3.5 | 1.7 | 0.00 | 0.00 | 0.00 | ||
| 20260508135628 | 60 | 89 | 3.5 | 3.5 | 0.00 | 0.00 | 0.00 | ||
| 20260508135126 | 59 | 59 | 2.6 | 1.7 | 0.00 | 0.00 | 0.00 | ||
| 20260508134626 | 59 | 69 | 2.6 | 3.5 | 0.00 | 0.00 | 0.00 | ||
| 20260508134127 | 59 | 59 | 0.9 | 0.0 | 0.00 | 0.00 | 0.00 | ||
| 20260508133624 | 59 | 56 | 2.6 | 0.9 | 0.00 | 0.00 | 0.00 | ||
| 20260508133124 | 59 | 77 | 4.3 | 1.7 | 0.00 | 0.00 | 0.00 | ||
| 20260508132625 | 59 | 359 | 5.2 | 3.5 | 0.00 | 0.00 | 0.00 | ||
| 20260508132122 | 59 | 0 | 6.1 | 6.1 | 0.00 | 0.00 | 0.00 | ||
| 20260508131622 | 59 | 6 | 4.3 | 5.2 | 0.00 | 0.00 | 0.00 | ||
| 20260508131123 | 59 | 10 | 5.2 | 6.1 | 0.00 | 0.00 | 0.00 | ||
| 20260508130620 | 59 | 18 | 6.1 | 6.1 | 0.00 | 0.00 | 0.00 | ||
| 20260508130121 | 59 | 28 | 5.2 | 4.3 | 0.00 | 0.00 | 0.00 | ||
| 20260508125621 | 59 | 39 | 3.5 | 5.2 | 0.00 | 0.00 | 0.00 | ||
| 20260508125119 | 59 | 68 | 4.3 | 4.3 | 0.00 | 0.00 | 0.00 | ||
| 20260508124619 | 59 | 46 | 3.5 | 3.5 | 0.00 | 0.00 | 0.00 | ||
| 20260508124120 | 59 | 41 | 4.3 | 5.2 | 0.00 | 0.00 | 0.00 | ||
| 20260508123617 | 59 | 41 | 4.3 | 5.2 | 0.00 | 0.00 | 0.00 | ||
| 20260508123118 | 59 | 27 | 4.3 | 3.5 | 0.00 | 0.00 | 0.00 | ||
| 20260508122618 | 59 | 11 | 3.5 | 4.3 | 0.00 | 0.00 | 0.00 | ||
| 20260508122115 | 59 | 45 | 4.3 | 5.2 | 0.00 | 0.00 | 0.00 | ||
| 20260508121615 | 59 | 52 | 3.5 | 6.1 | 0.00 | 0.00 | 0.00 | ||
| 20260508121115 | 59 | 68 | 3.5 | 2.6 | 0.00 | 0.00 | 0.00 | ||
| 20260508120613 | 59 | 62 | 4.3 | 4.3 | 0.00 | 0.00 | 0.00 | ||
| 20260508120113 | 59 | 44 | 3.5 | 4.3 | 0.00 | 0.00 | 0.00 | ||
| 20260508115614 | 59 | 45 | 5.2 | 3.5 | 0.00 | 0.00 | 0.00 | ||
| 20260508115111 | 59 | 60 | 3.5 | 3.5 | 0.00 | 0.00 | 0.00 | ||
| 20260508114612 | 59 | 91 | 3.5 | 2.6 | 0.00 | 0.00 | 0.00 | ||
| 20260508114112 | 59 | 94 | 1.7 | 4.3 | 0.00 | 0.00 | 0.00 | ||
| 20260508113610 | 59 | 86 | 2.6 | 3.5 | 0.00 | 0.00 | 0.00 | ||
| 20260508113110 | 59 | 86 | 3.5 | 3.5 | 0.00 | 0.00 | 0.00 | ||
| 20260508112611 | 59 | 77 | 1.7 | 3.5 | 0.00 | 0.00 | 0.00 | ||
| 20260508112108 | 59 | 58 | 1.7 | 1.7 | 0.00 | 0.00 | 0.00 | ||
| 20260508111609 | 59 | 66 | 3.5 | 2.6 | 0.00 | 0.00 | 0.00 | ||
| 20260508111109 | 59 | 86 | 1.7 | 1.7 | 0.00 | 0.00 | 0.00 | ||
| 20260508110607 | 59 | 23 | 0.0 | 0.0 | 0.00 | 0.00 | 0.00 | ||
| 20260508110107 | 59 | 23 | 0.0 | 0.0 | 0.00 | 0.00 | 0.00 | ||
| 20260508105608 | 59 | 23 | 1.7 | 0.9 | 0.00 | 0.00 | 0.00 | ||
| 20260508105105 | 59 | 357 | 3.5 | 3.5 | 0.00 | 0.00 | 0.00 | ||
| 20260508104606 | 59 | 1 | 0.0 | 3.5 | 0.00 | 0.00 | 0.00 | ||
| 20260508104106 | 59 | 129 | 0.0 | 0.0 | 0.00 | 0.00 | 0.00 | ||
| 20260508103604 | 59 | 129 | 0.0 | 0.0 | 0.00 | 0.00 | 0.00 | ||
| 20260508103104 | 59 | 129 | 0.0 | 0.0 | 0.00 | 0.00 | 0.00 | ||
| 20260508102605 | 59 | 129 | 0.0 | 0.0 | 0.00 | 0.00 | 0.00 | ||
| 20260508102103 | 59 | 129 | 0.0 | 0.0 | 0.00 | 0.00 | 0.00 | ||
| 20260508101603 | 59 | 129 | 0.0 | 0.0 | 0.00 | 0.00 | 0.00 | ||
| 20260508101104 | 59 | 129 | 0.0 | 0.0 | 0.00 | 0.00 | 0.00 | ||
| 20260508100601 | 59 | 129 | 0.0 | 0.0 | 0.00 | 0.00 | 0.00 | ||
| 20260508095602 | 59 | 129 | 0.0 | 0.0 | 0.00 | 0.00 | 0.00 | ||
| 20260508094600 | 59 | 129 | 0.0 | 0.0 | 0.00 | 0.00 | 0.00 | ||
| 20260508094101 | 59 | 129 | 0.0 | 0.0 | 0.00 | 0.00 | 0.00 | ||
| 20260508093559 | 59 | 138 | 1.7 | 0.9 | 0.00 | 0.00 | 0.00 | ||
| 20260508093059 | 59 | 121 | 0.9 | 0.0 | 0.00 | 0.00 | 0.00 | ||
| 20260508092600 | 59 | 139 | 2.6 | 3.5 | 0.00 | 0.00 | 0.00 | ||
| 20260508092057 | 59 | 139 | 2.6 | 2.6 | 0.00 | 0.00 | 0.00 | ||
| 20260508091558 | 59 | 162 | 2.6 | 2.6 | 0.00 | 0.00 | 0.00 | ||
| 20260508091057 | 58 | 127 | 3.5 | 3.5 | 0.00 | 0.00 | 0.00 | ||
| 20260508090555 | 58 | 145 | 3.5 | 3.5 | 0.00 | 0.00 | 0.00 | ||
| 20260508090055 | 59 | 146 | 3.5 | 3.5 | 0.00 | 0.00 | 0.00 | ||
| 20260508085556 | 58 | 158 | 3.5 | 2.6 | 0.00 | 0.00 | 0.00 | ||
| 20260508085053 | 58 | 145 | 6.1 | 5.2 | 0.00 | 0.00 | 0.00 | ||
| 20260508084554 | 58 | 142 | 4.3 | 5.2 | 0.00 | 0.00 | 0.00 | ||
| 20260508084055 | 58 | 142 | 4.3 | 4.3 | 0.00 | 0.00 | 0.00 | ||
| 20260508083552 | 58 | 149 | 6.1 | 6.1 | 0.00 | 0.00 | 0.00 | ||
| 20260508083053 | 58 | 172 | 5.2 | 5.2 | 0.00 | 0.00 | 0.00 | ||
| 20260508082553 | 58 | 138 | 3.5 | 1.7 | 0.00 | 0.00 | 0.00 | ||
| 20260508081552 | 58 | 143 | 7.0 | 5.2 | 0.00 | 0.00 | 0.00 | ||
| 20260508080550 | 58 | 128 | 6.1 | 6.1 | 0.00 | 0.00 | 0.00 | ||
| 20260508080050 | 58 | 127 | 7.8 | 7.0 | 0.00 | 0.00 | 0.00 | ||
| 20260508075551 | 58 | 127 | 6.1 | 7.0 | 0.00 | 0.00 | 0.00 | ||
| 20260508075049 | 58 | 139 | 4.3 | 5.2 | 0.00 | 0.00 | 0.00 | ||
| 20260508074549 | 58 | 131 | 4.3 | 4.3 | 0.00 | 0.00 | 0.00 | ||
| 20260508074050 | 58 | 155 | 4.3 | 4.3 | 0.00 | 0.00 | 0.00 | ||
| 20260508073547 | 58 | 155 | 5.2 | 3.5 | 0.00 | 0.00 | 0.00 | ||
| 20260508073048 | 58 | 103 | 6.1 | 4.3 | 0.00 | 0.00 | 0.00 | ||
| 20260508072548 | 58 | 124 | 3.5 | 5.2 | 0.00 | 0.00 | 0.00 | ||
| 20260508072046 | 58 | 131 | 6.1 | 4.3 | 0.00 | 0.00 | 0.00 | ||
| 20260508071546 | 58 | 150 | 5.2 | 4.3 | 0.00 | 0.00 | 0.00 | ||
| 20260508071047 | 58 | 90 | 5.2 | 5.2 | 0.00 | 0.00 | 0.00 | ||
| 20260508070544 | 58 | 83 | 4.3 | 5.2 | 0.00 | 0.00 | 0.00 | ||
| 20260508070045 | 58 | 125 | 3.5 | 4.3 | 0.00 | 0.00 | 0.00 | ||
| 20260508065545 | 59 | 97 | 4.3 | 2.6 | 0.00 | 0.00 | 0.00 | ||
| 20260508065042 | 58 | 82 | 4.3 | 4.3 | 0.00 | 0.00 | 0.00 | ||
| 20260508064542 | 59 | 68 | 5.2 | 6.1 | 0.00 | 0.00 | 0.00 | ||
| 20260508064043 | 59 | 91 | 4.3 | 5.2 | 0.00 | 0.00 | 0.00 | ||
| 20260508063540 | 59 | 72 | 3.5 | 3.5 | 0.00 | 0.00 | 0.00 | ||
| 20260508063041 | 59 | 84 | 5.2 | 3.5 | 0.00 | 0.00 | 0.00 | ||
| 20260508062542 | 59 | 38 | 2.6 | 3.5 | 0.00 | 0.00 | 0.00 | ||
| 20260508062039 | 59 | 352 | 3.5 | 2.6 | 0.00 | 0.00 | 0.00 | ||
| 20260508061540 | 58 | 335 | 3.5 | 3.5 | 0.00 | 0.00 | 0.00 | ||
| 20260508061040 | 59 | 309 | 2.6 | 2.6 | 0.00 | 0.00 | 0.00 | ||
| 20260508060538 | 59 | 311 | 2.6 | 1.7 | 0.00 | 0.00 | 0.00 | ||
| 20260508060038 | 58 | 326 | 3.5 | 2.6 | 0.00 | 0.00 | 0.00 | ||
| 20260508055539 | 58 | 322 | 4.3 | 4.3 | 0.00 | 0.00 | 0.00 | ||
| 20260508055039 | 59 | 63 | 0.0 | 0.0 | 0.00 | 0.00 | 0.00 | ||
| 20260508054538 | 59 | 63 | 0.0 | 0.0 | 0.00 | 0.00 | 0.00 | ||
| 20260508054038 | 59 | 63 | 0.0 | 0.0 | 0.00 | 0.00 | 0.00 | ||
| 20260508053537 | 58 | 63 | 0.0 | 0.0 | 0.00 | 0.00 | 0.00 | ||
| 20260508053035 | 53 | 63 | 0.0 | 0.0 | 0.00 | 0.00 | 0.00 | ||
| 20260508052536 | 58 | 63 | 0.0 | 0.0 | 0.00 | 0.00 | 0.00 | ||
| 20260508052033 | 58 | 63 | 0.0 | 0.0 | 0.00 | 0.00 | 0.00 | ||
| 20260508051534 | 58 | 66 | 2.6 | 1.7 | 0.00 | 0.00 | 0.00 | ||
| 20260508051034 | 59 | 76 | 2.6 | 2.6 | 0.00 | 0.00 | 0.00 | ||
| 20260508050532 | 58 | 80 | 3.5 | 4.3 | 0.00 | 0.00 | 0.00 | ||
| 20260508050032 | 58 | 94 | 3.5 | 3.5 | 0.00 | 0.00 | 0.00 | ||
| 20260508045533 | 58 | 89 | 3.5 | 1.7 | 0.00 | 0.00 | 0.00 | ||
| 20260508045030 | 58 | 94 | 2.6 | 4.3 | 0.00 | 0.00 | 0.00 | ||
| 20260508044531 | 58 | 98 | 3.5 | 4.3 | 0.00 | 0.00 | 0.00 | ||
| 20260508044031 | 59 | 105 | 3.5 | 3.5 | 0.00 | 0.00 | 0.00 | ||
| 20260508043611 | 59 | 114 | 4.3 | 3.5 | 0.00 | 0.00 | 0.00 | ||
| 20260508043529 | 59 | 114 | 4.3 | 3.5 | 0.00 | 0.00 | 0.00 | ||
| 20260508043029 | 57 | 107 | 0.0 | 0.0 | 0.00 | 0.00 | 0.00 | ||
| 20260508042530 | 54 | 107 | 0.0 | 0.0 | 0.00 | 0.00 | 0.00 | ||
| 20260508042059 | 54 | 107 | 0.0 | 0.0 | 0.00 | 0.00 | 0.00 | ||
| 20260508042027 | 54 | 107 | 0.0 | 0.0 | 0.00 | 0.00 | 0.00 | ||
| 20260508041651 | 54 | 107 | 0.0 | 0.0 | 0.00 | 0.00 | 0.00 | ||
| 20260508041528 | 54 | 107 | 0.0 | 0.0 | 0.00 | 0.00 | 0.00 | ||
| 20260508041028 | 56 | 107 | 0.0 | 0.0 | 0.00 | 0.00 | 0.00 | ||
| 20260508040526 | 54 | 107 | 0.0 | 0.0 | 0.00 | 0.00 | 0.00 | ||
| 20260508040026 | 58 | 107 | 0.0 | 0.0 | 0.00 | 0.00 | 0.00 | ||
| 20260508035527 | 58 | 107 | 0.0 | 0.0 | 0.00 | 0.00 | 0.00 | ||
| 20260508035024 | 58 | 107 | 0.0 | 0.0 | 0.00 | 0.00 | 0.00 | ||
| 20260508034525 | 58 | 93 | 0.0 | 2.6 | 0.00 | 0.00 | 0.00 | ||
| 20260508034025 | 58 | 49 | 0.0 | 0.0 | 0.00 | 0.00 | 0.00 | ||
| 20260508033523 | 58 | 49 | 0.0 | 0.0 | 0.00 | 0.00 | 0.00 | ||
| 20260508033023 | 58 | 49 | 0.0 | 0.0 | 0.00 | 0.00 | 0.00 | ||
| 20260508032524 | 58 | 121 | 2.6 | 2.6 | 0.00 | 0.00 | 0.00 | ||
| 20260508032021 | 57 | 87 | 4.3 | 3.5 | 0.00 | 0.00 | 0.00 | ||
| 20260508031522 | 58 | 104 | 3.5 | 3.5 | 0.00 | 0.00 | 0.00 | ||
| 20260508031022 | 58 | 91 | 5.2 | 3.5 | 0.00 | 0.00 | 0.00 | ||
| 20260508030520 | 57 | 83 | 5.2 | 6.1 | 0.00 | 0.00 | 0.00 | ||
| 20260508030021 | 57 | 90 | 5.2 | 4.3 | 0.00 | 0.00 | 0.00 | ||
| 20260508025521 | 58 | 93 | 4.3 | 4.3 | 0.00 | 0.00 | 0.00 | ||
| 20260508025019 | 57 | 75 | 3.5 | 3.5 | 0.00 | 0.00 | 0.00 | ||
| 20260508024519 | 58 | 103 | 4.3 | 4.3 | 0.00 | 0.00 | 0.00 | ||
| 20260508024019 | 58 | 107 | 3.5 | 3.5 | 0.00 | 0.00 | 0.00 | ||
| 20260508023516 | 57 | 120 | 2.6 | 2.6 | 0.00 | 0.00 | 0.00 | ||
| 20260508022517 | 53 | 79 | 4.3 | 2.6 | 0.00 | 0.00 | 0.00 | ||
| 20260508022014 | 52 | 76 | 3.5 | 4.3 | 0.00 | 0.00 | 0.00 | ||
| 20260508021515 | 53 | 104 | 4.3 | 4.3 | 0.00 | 0.00 | 0.00 | ||
| 20260508021015 | 52 | 101 | 3.5 | 5.2 | 0.00 | 0.00 | 0.00 | ||
| 20260508020513 | 53 | 125 | 4.3 | 3.5 | 0.00 | 0.00 | 0.00 | ||
| 20260508020013 | 52 | 103 | 3.5 | 3.5 | 0.00 | 0.00 | 0.00 | ||
| 20260508015514 | 57 | 94 | 5.2 | 4.3 | 0.00 | 0.00 | 0.00 | ||
| 20260508015010 | 52 | 136 | 4.3 | 4.3 | 0.00 | 0.00 | 0.00 | ||
| 20260508014511 | 54 | 136 | 4.3 | 2.6 | 0.00 | 0.00 | 0.00 | ||
| 20260508014012 | 54 | 93 | 3.5 | 4.3 | 0.00 | 0.00 | 0.00 | ||
| 20260508013509 | 53 | 94 | 4.3 | 5.2 | 0.00 | 0.00 | 0.00 | ||
| 20260508013010 | 54 | 114 | 5.2 | 5.2 | 0.00 | 0.00 | 0.00 | ||
| 20260508012510 | 53 | 104 | 6.1 | 6.1 | 0.00 | 0.00 | 0.00 | ||
| 20260508012008 | 54 | 117 | 4.3 | 3.5 | 0.00 | 0.00 | 0.00 | ||
| 20260508011508 | 54 | 101 | 4.3 | 6.1 | 0.00 | 0.00 | 0.00 | ||
| 20260508011009 | 50 | 113 | 5.2 | 6.1 | 0.00 | 0.00 | 0.00 | ||
| 20260508010506 | 51 | 141 | 7.0 | 7.8 | 0.00 | 0.00 | 0.00 | ||
| 20260508010007 | 53 | 114 | 6.1 | 5.2 | 0.00 | 0.00 | 0.00 | ||
| 20260508005507 | 56 | 135 | 3.5 | 5.2 | 0.00 | 0.00 | 0.00 | ||
| 20260508005005 | 58 | 114 | 5.2 | 3.5 | 0.00 | 0.00 | 0.00 | ||
| 20260508004505 | 52 | 93 | 4.3 | 3.5 | 0.00 | 0.00 | 0.00 | ||
| 20260508004006 | 57 | 124 | 5.2 | 2.6 | 0.00 | 0.00 | 0.00 | ||
| 20260508003503 | 56 | 139 | 5.2 | 7.0 | 0.00 | 0.00 | 0.00 | ||
| 20260508003005 | 58 | 107 | 5.2 | 6.1 | 0.00 | 0.00 | 0.00 |